Regional Weather Roundup
Issued by NWS

Home | Current Version | Previous Version | Graphics & Text | Print | Product List | Glossary On
Versions: 1 2 3 4 5 6 7 8 9 10 11 12 13 14 15 16 17 18 19 20 21 22 23 24 25 26 27 28 29 30 31 32 33 34 35 36 37 38 39 40 41 42 43 44 45 46 47 48 49 50
118
ASUS43 KBIS 232202
RWRND

NORTH DAKOTA REGIONAL WEATHER ROUNDUP
NATIONAL WEATHER SERVICE BISMARCK ND
500 PM CDT SUN JUL 23 2017

NOTE: "FAIR" INDICATES FEW OR NO CLOUDS BELOW 12,000 FEET WITH NO
SIGNIFICANT WEATHER AND/OR OBSTRUCTIONS TO VISIBILITY.


NDZ001>003-009>011-017-232300-
NORTHWEST NORTH DAKOTA

CITY           SKY/WX    TMP DP  RH WIND       PRES   REMARKS
WILLISTON      SUNNY     93  49  22 VRB5      29.92F HX  90
MINOT          FAIR      85  50  29 SE3       29.96F
MINOT AFB      FAIR      83  52  34 SE6       29.95F
$$

NDZ018>021-031>035-040>046-232300-
SOUTHWEST NORTH DAKOTA

CITY           SKY/WX    TMP DP  RH WIND       PRES   REMARKS
BISMARCK       SUNNY     84  55  36 S5        29.99F
DICKINSON      SUNNY     89  49  25 E3        29.97F
GARRISON         N/A     82  54  37 S3        29.98F
HETTINGER ARPT SUNNY     89  47  23 VRB3      30.00F
$$

NDZ004>008-012>016-024-026-027-054-232300-
NORTHEAST NORTH DAKOTA

CITY           SKY/WX    TMP DP  RH WIND       PRES   REMARKS
GRAND FORKS    FAIR      79  62  56 NE5       29.98F
GRND FRKS AFB  FAIR      77  61  56 CALM      29.99F
DEVILS LAKE    FAIR      77  58  51 VRB5      30.01F
$$

NDZ022-023-025-028>030-036>039-047>053-232300-
SOUTHEAST NORTH DAKOTA

CITY           SKY/WX    TMP DP  RH WIND       PRES   REMARKS
FARGO          FAIR      77  62  59 NE5       29.99F
JAMESTOWN      FAIR      79  58  48 VRB3      30.00F
$$





USA.gov is the U.S. government's official web portal to all federal, state and local government web resources and services.